Погода в Брагине

Погода в Брагине : погода сейчас, прогноз погоды и архив. Всё, что Вы хотите узнать о погоде в Брагине!

Поиск расширенной информации на нашем сайте:

Другие новости

Новости СМИ2

Главная страница сайта

Новости сайта

03.07.2017

Напоминаем, что на нашем специализированном сайте Метеоцентр.Азия вы можете получить высокодетализированные автоматические прогнозы погоды по пунктам России, СНГ и мира в авиационном формате (включающие направление и скорость ветра, видимость, явления погоды, количество и форму облачности, нижнюю и верхнюю границу облачности).


Погода в Брагине - сегодня

Время (UTC), дата Ветер
(°,м/с) 
Видим.   Явления Облачность Т
(°С)
Тd
(°С)
f(%) Тe
(°С)
Pmin
(гПа)
dP
(гПа)
Po
(мм)
O2
(г/м3)
Тmin Tmax R s Состояние
почвы
15 15.02.18 070 (В) 9000 м  дымка  10/1 300 м 
[St]
-3.5 -4.7 91 -3  1029.2  0.6  761  311           
18 15.02.18 060 (СВ) 6000 м  слаб. ливневой снег  10/10 500 м кучево-дожд. 
[Cb cap]
-3.5 -4.4 93 -3  1029.5  0.3  761  311    -3.2  0.1  15   
06 16.02.18 060 (СВ) 6000 м  слаб. ливневой снег  10/10 540 м кучево-дожд. 
[Cb cap]
-2.6 -3.5 94 -2  1028.8  0.2  760  310  -3.6    0.0  15  равномерный
сухой снег
100% 
09 16.02.18 150 (ЮВ) 12000 м  {ливн. осадки}  10/10 2000 м 
[Ns]
-1.6 -3.4 88 -4  1027.9  -0.8  760  308           
12 16.02.18 140 (ЮВ) 15000 м  {ливн. осадки}  10/10 2000 м 
[Ns]
-0.6 -3.4 81 -1  1026.9  -0.9  759  307           
15 16.02.18 150 (ЮВ) 15000 м    10/10 2000 м 
[Ns]
-0.6 -3.2 83 -1  1025.7  -1.2  758  307      0.1     
18 16.02.18 140 (ЮВ) 5000 м  слаб. ливневой снег  10/10 540 м кучево-дожд. 
[Cb cap]
-1.3 -2 95 -2  1025.4  -0.3  758  307    -0.4  0.6  15   
06 17.02.18 230 (ЮЗ) 4500 м  дымка  10/10 210 м 
[St]
-1.1 -1.7 96 -1  1023.1  -0.1  756  306  -1.9    16  равномерный
сухой снег
100% 
09 17.02.18 260 (З) 10 км    10/10 420 м 
[St]
+0.3 -1.5 88 +1  1022.8  -0.2  756  304           
12 17.02.18 260 (З) 18000 м    8/8 870 м 
[Sc]
+1.7 -1.6 79 +1  1022  -0.7  756  303           
15 17.02.18 050 (СВ) 23000 м    6/4 600 м средняя 
[Sc|Ac trans]
+0.5 -3.4 75 +1  1021.5  -0.6  755  304           
18 17.02.18 050 (СВ) 12000 м    10/10 2000 м 
[Ac As]
-0.7 -2.4 88 1021  -0.5  755  305    +2.2    14   
06 18.02.18 тихо ()   9000 м  дымка  10/10 2000 м 
[Ac As]
-1.1 -2.1 93 -1  1020.4  0.4  754  305  -1.3      14  равномерный
сухой снег
100% 
09 18.02.18 310 (СЗ) 13000 м    9/9 2000 м средняя 
[Ac und]
+0.4 -1.9 85 +1  1020.3  -0.1  754  304           
12 18.02.18 320 (СЗ) 19000 м  в посл. час ливневой снег  10/10 660 м 
[Sc]
+0.1 -3.6 76 -1  1020.7  0.4  755  304           
18 18.02.18 300 (СЗ) 24000 м  {ливн. осадки}  10/10 750 м 
[Sc]
-2.7 -6.3 76 -2  1021.9  0.8  755  308    +0.6  0.0  13   
06 19.02.18 290 (З) 27000 м    10/10 2000 м 
[Sc]
-4.6 -8 77 -6  1023.8  757  311  -5.7      13  равномерный
сухой снег
100% 
09 19.02.18 290 (З) 24000 м    5/3 2000 м средняя, верхняя 
[Ac trans|Ci fib]
-4.4 -7.6 78 -4  1024.1  0.3  757  311           
12 19.02.18 280 (З) 20000 м    10/10 2000 м 
[Ac As]
-2.5 -5.8 78 -2  1023.6  -0.4  757  308           
15 19.02.18 280 (З) 19000 м    10/10 2000 м 
[Ac As]
-2.2 -4.9 82 -2  1023.4  -0.2  756  308           
18 19.02.18 280 (З) 9000 м  дымка  10/10 600 м 
[Sc]
-2.1 -3.3 91 -4  1023.6  0.3  757  308    -2    13   
06 20.02.18 тихо ()   13000 м    10/10 870 м 
[Sc]
-6.4 -8.3 86 -6  1025.4  0.5  758  314  -9.6      13  равномерный
сухой снег
100% 
09 20.02.18 350 (С) 40000 м    10/10 870 м 
[Sc]
-2.6 -7.6 68 -2  1025.6  0.4  758  309           
12 20.02.18 360 (С) 40000 м    9/9 2000 м средняя 
[Ac und]
-1.7 -7.4 65 -3  1024.8  -0.7  758  308           
15 20.02.18 360 (С) 30000 м    9/9 2000 м средняя 
[Ac und]
-1.9 -6.5 71 -1  1024.4  -0.4  757  308           
Время (UTC), дата Ветер
(°,м/с) 
Видим.   Явления Облачность Т
(°С)
Тd
(°С)
f(%) Тe
(°С)
Pmin
(гПа)
dP
(гПа)
Po
(мм)
O2
(г/м3)
Тmin Tmax R s Состояние
почвы

Для получения пояснительной информации подведите курсор к названию столбца.

ПОГОДА в Брагине - архив

Всё, что Вы хотите узнать о погоде в Брагине - удобно и подробно!

Выберите нужную дату (начиная с 1 января 2015* года) и нажмите кнопку "Найти".
Будут отображены архивные сводки погоды по пункту Брагин, начиная с указанной даты.


Отображать данные в формате CSV (для использования в таблицах Excel)


Внимание! Наш архив погоды предназначен исключительно для личного некоммерческого использования в познавательных целях. Если Вам необходимы официальные справки о состоянии погоды (для производственных, юридических, коммерческих и т.п. целей), обращайтесь в органы Росгидромета.

*Примечание: данная дата относится к архиву по метеостанциям СССР (Россия, СНГ, Балтия).
Архив по метеостанциям Зарубежной Европы и Азии (кроме Китая) хранится 10 дней, по другим регионам земного шара (Китай, Африка, Америка, Австралия, Океания) - 1 день.

Брагин - район местоположения метеостанции


Название, широта, долгота, высота метеостанции:
Брагин 51.8°ш. 30.3°д. 116 м над ур. моря [Беларусь]

Дополнительная информация

В oтличие oт бoльшинства пoгoдных сайтoв мы публикуем пoдрoбную метеoинфoрмацию в детальнoм прoфессиoнальнoм фoрмате.

Характеристики температуры и влажнoсти вoздуха измеряются на высoте 2 м в тени вдали oт зданий и деревьев.
Скoрoсть ветра измеряется на высoте 10 м (на урoвне рoста челoвека скoрoсть ветра ниже в 1.5-2 раза). Если метеoстанция нахoдится в гoрoде или в лесу, тo скoрoсть ветра занижена на 2-4 м/с пo сравнению с oткрытым местoм. Скoрoсть ветра над акватoриями крупных рек и oзёр, а также на вершинах хoлмoв на 2-5 м/с выше, чем в oбычных услoвиях.
Атмoсфернoе давление в разных тoчках местнoсти мoжет значительнo oтличаться oт давления на метеoстанции, в зависимoсти oт услoвий рельефа (при пoдъёме на 10 м давление пoнижается примернo на 1 мм рт.ст.).